When you browse on this site, cookies collect data to enhance your experience and personalize the content and advertising you see.
Visit our Privacy Policy to learn more. By continuing to use the site, you agree to this use of cookies and data.
  • In Hungary
  • List of Countries
  • For 7 days
  • Water Temperature
  • Weather Map
  • News
  • Weather Widgets
  • user-avatar
    Login

    Hourly Weather Stavyshche

    Today, 19 August, Monday

    Time Temperature Precipitation Wind Pressure Humidity
    00:00 +17°C° 0 mm 2 mps 747 mmHg 87%
    01:00 +16°C° 0 mm 2 mps 748 mmHg 90%
    02:00 +16°C° 0 mm 2 mps 748 mmHg 90%
    03:00 +16°C° 0 mm 2 mps 748 mmHg 90%
    04:00 +15°C° 0 mm 2 mps 748 mmHg 91%
    05:00 +15°C° 0 mm 2 mps 748 mmHg 91%
    06:00 +17°C° 0 mm 2 mps 749 mmHg 82%
    07:00 +19°C° 0 mm 2 mps 749 mmHg 74%
    08:00 +21°C° 0 mm 3 mps 749 mmHg 65%
    09:00 +22°C° 0 mm 3 mps 749 mmHg 60%
    10:00 +25°C° 0 mm 3 mps 749 mmHg 55%
    11:00 +26°C° 0 mm 2 mps 749 mmHg 49%
    12:00 +27°C° 0 mm 2 mps 749 mmHg 47%
    13:00 +28°C° 0 mm 2 mps 749 mmHg 44%
    14:00 +29°C° 0 mm 2 mps 750 mmHg 42%
    15:00 +28°C° 0 mm 2 mps 749 mmHg 44%
    16:00 +28°C° 0 mm 3 mps 749 mmHg 46%
    17:00 +28°C° 0 mm 3 mps 749 mmHg 48%
    18:00 +26°C° 0 mm 3 mps 750 mmHg 54%
    19:00 +24°C° 0 mm 3 mps 750 mmHg 60%
    20:00 +22°C° 0 mm 3 mps 750 mmHg 66%
    21:00 +21°C° 0 mm 2 mps 750 mmHg 69%
    22:00 +20°C° 0 mm 2 mps 750 mmHg 72%
    23:00 +20°C° 0 mm 2 mps 750 mmHg 75%

    Tomorrow, 20 August, Tuesday

    Time Temperature Precipitation Wind Pressure Humidity
    00:00 +19°C° 0 mm 2 mps 750 mmHg 77%
    01:00 +19°C° 0 mm 2 mps 751 mmHg 79%
    02:00 +19°C° 0 mm 2 mps 751 mmHg 80%
    03:00 +19°C° 0 mm 2 mps 751 mmHg 80%
    04:00 +19°C° 0 mm 2 mps 751 mmHg 79%
    05:00 +19°C° 0 mm 3 mps 751 mmHg 79%
    06:00 +21°C° 0 mm 3 mps 751 mmHg 73%
    07:00 +24°C° 0 mm 3 mps 751 mmHg 66%
    08:00 +26°C° 0 mm 4 mps 751 mmHg 60%
    09:00 +27°C° 0 mm 4 mps 751 mmHg 56%
    10:00 +28°C° 0 mm 4 mps 751 mmHg 52%
    11:00 +30°C° 0 mm 4 mps 751 mmHg 48%
    12:00 +32°C° 0 mm 4 mps 751 mmHg 46%
    13:00 +32°C° 0 mm 4 mps 751 mmHg 45%
    14:00 +33°C° 0 mm 4 mps 751 mmHg 43%
    15:00 +32°C° 0 mm 4 mps 751 mmHg 46%
    16:00 +32°C° 0 mm 4 mps 751 mmHg 48%
    17:00 +30°C° 0 mm 4 mps 751 mmHg 51%
    18:00 +29°C° 0 mm 4 mps 751 mmHg 57%
    19:00 +27°C° 0 mm 4 mps 751 mmHg 63%
    20:00 +25°C° 0 mm 4 mps 751 mmHg 69%
    21:00 +25°C° 0 mm 4 mps 751 mmHg 70%
    22:00 +23°C° 0 mm 4 mps 751 mmHg 72%
    23:00 +23°C° 0 mm 4 mps 751 mmHg 73%

    Day after tomorrow, 21 August, Wednesday

    Time Temperature Precipitation Wind Pressure Humidity
    00:00 +22°C° 0 mm 4 mps 751 mmHg 73%
    01:00 +22°C° 0 mm 4 mps 751 mmHg 72%
    02:00 +22°C° 0 mm 4 mps 751 mmHg 72%
    03:00 +21°C° 0 mm 4 mps 751 mmHg 73%
    04:00 +21°C° 0 mm 4 mps 751 mmHg 75%
    05:00 +20°C° 0 mm 4 mps 751 mmHg 77%
    06:00 +22°C° 0 mm 4 mps 751 mmHg 71%
    07:00 +25°C° 0 mm 5 mps 751 mmHg 65%
    08:00 +26°C° 0 mm 6 mps 751 mmHg 59%
    09:00 +28°C° 0 mm 6 mps 751 mmHg 55%
    10:00 +29°C° 0 mm 6 mps 751 mmHg 52%
    11:00 +32°C° 0 mm 6 mps 750 mmHg 48%
    12:00 +33°C° 0 mm 6 mps 750 mmHg 47%
    13:00 +33°C° 0 mm 6 mps 750 mmHg 45%
    14:00 +34°C° 0 mm 6 mps 750 mmHg 44%
    15:00 +33°C° 0 mm 5 mps 750 mmHg 47%
    16:00 +33°C° 0 mm 5 mps 749 mmHg 49%
    17:00 +32°C° 0 mm 4 mps 749 mmHg 52%
    18:00 +30°C° 0 mm 4 mps 749 mmHg 57%
    19:00 +28°C° 0 mm 4 mps 749 mmHg 61%
    20:00 +27°C° 0 mm 4 mps 749 mmHg 66%
    21:00 +26°C° 0 mm 4 mps 749 mmHg 69%
    22:00 +25°C° 0 mm 4 mps 749 mmHg 73%
    23:00 +23°C° 0 mm 4 mps 749 mmHg 76%

    22 August, Thursday

    Time Temperature Precipitation Wind Pressure Humidity
    00:00 +23°C° 0 mm 4 mps 749 mmHg 79%
    01:00 +22°C° 0 mm 4 mps 749 mmHg 82%
    02:00 +22°C° 0 mm 3 mps 749 mmHg 85%
    03:00 +21°C° 0 mm 4 mps 749 mmHg 85%
    04:00 +21°C° 0 mm 4 mps 749 mmHg 86%
    05:00 +21°C° 0 mm 4 mps 749 mmHg 87%
    06:00 +22°C° 0 mm 4 mps 749 mmHg 79%
    07:00 +25°C° 0 mm 4 mps 749 mmHg 72%
    08:00 +27°C° 0 mm 4 mps 749 mmHg 65%
    09:00 +29°C° 0 mm 4 mps 749 mmHg 57%
    10:00 +32°C° 0 mm 4 mps 749 mmHg 50%
    11:00 +34°C° 0 mm 4 mps 749 mmHg 42%
    12:00 +35°C° 0 mm 4 mps 749 mmHg 40%
    13:00 +35°C° 0 mm 3 mps 749 mmHg 38%
    14:00 +36°C° 0 mm 3 mps 749 mmHg 35%
    15:00 +35°C° 0 mm 3 mps 749 mmHg 39%
    16:00 +34°C° 0 mm 3 mps 749 mmHg 43%
    17:00 +32°C° 0 mm 2 mps 749 mmHg 46%
    18:00 +31°C° 0 mm 2 mps 749 mmHg 50%
    19:00 +29°C° 0 mm 2 mps 749 mmHg 53%
    20:00 +28°C° 0 mm 2 mps 749 mmHg 57%
    21:00 +27°C° 0 mm 2 mps 749 mmHg 58%
    22:00 +26°C° 0 mm 3 mps 749 mmHg 59%
    23:00 +26°C° 0 mm 3 mps 749 mmHg 60%

    23 August, Friday

    Time Temperature Precipitation Wind Pressure Humidity
    00:00 +26°C° 0 mm 3 mps 749 mmHg 59%
    01:00 +25°C° 0 mm 2 mps 749 mmHg 58%
    02:00 +25°C° 0 mm 2 mps 749 mmHg 57%
    03:00 +24°C° 0 mm 2 mps 749 mmHg 58%
    04:00 +24°C° 0 mm 2 mps 749 mmHg 59%
    05:00 +23°C° 0 mm 2 mps 749 mmHg 60%
    06:00 +25°C° 0 mm 2 mps 749 mmHg 56%
    07:00 +27°C° 0 mm 2 mps 749 mmHg 52%
    08:00 +28°C° 0 mm 2 mps 749 mmHg 48%
    09:00 +30°C° 0 mm 2 mps 749 mmHg 44%
    10:00 +31°C° 0 mm 2 mps 749 mmHg 40%
    11:00 +34°C° 0 mm 2 mps 749 mmHg 36%
    12:00 +34°C° 0 mm 3 mps 749 mmHg 35%
    13:00 +35°C° 0 mm 3 mps 749 mmHg 34%
    14:00 +35°C° 0 mm 3 mps 749 mmHg 33%
    15:00 +34°C° 0 mm 3 mps 749 mmHg 37%
    16:00 +34°C° 0 mm 3 mps 749 mmHg 40%
    17:00 +33°C° 0 mm 3 mps 749 mmHg 43%
    18:00 +30°C° 0.1 mm 3 mps 749 mmHg 49%
    19:00 +28°C° 0.1 mm 3 mps 749 mmHg 56%
    20:00 +27°C° 0.1 mm 3 mps 749 mmHg 62%
    21:00 +26°C° 0.1 mm 3 mps 749 mmHg 66%
    22:00 +25°C° 0.1 mm 4 mps 749 mmHg 71%
    23:00 +25°C° 0.1 mm 4 mps 750 mmHg 75%

    24 August, Saturday

    Time Temperature Precipitation Wind Pressure Humidity
    00:00 +23°C° 0 mm 4 mps 750 mmHg 79%
    01:00 +22°C° 0 mm 4 mps 750 mmHg 83%
    02:00 +21°C° 0 mm 4 mps 750 mmHg 88%
    03:00 +20°C° 0 mm 5 mps 750 mmHg 89%
    04:00 +20°C° 0 mm 5 mps 750 mmHg 89%
    05:00 +20°C° 0 mm 5 mps 750 mmHg 90%
    06:00 +20°C° 0 mm 5 mps 751 mmHg 84%
    07:00 +21°C° 0 mm 5 mps 751 mmHg 78%
    08:00 +22°C° 0 mm 5 mps 751 mmHg 72%
    09:00 +23°C° 0 mm 5 mps 751 mmHg 67%
    10:00 +24°C° 0 mm 6 mps 751 mmHg 61%
    11:00 +27°C° 0 mm 6 mps 751 mmHg 55%
    12:00 +27°C° 0 mm 6 mps 751 mmHg 51%
    13:00 +28°C° 0 mm 6 mps 751 mmHg 47%
    14:00 +29°C° 0 mm 6 mps 751 mmHg 43%
    15:00 +28°C° 0 mm 6 mps 751 mmHg 44%
    16:00 +27°C° 0 mm 6 mps 752 mmHg 44%
    17:00 +26°C° 0 mm 6 mps 752 mmHg 44%
    18:00 +23°C° 0 mm 6 mps 752 mmHg 47%
    19:00 +22°C° 0 mm 5 mps 752 mmHg 50%
    20:00 +20°C° 0 mm 5 mps 753 mmHg 53%
    21:00 +19°C° 0 mm 4 mps 753 mmHg 58%
    22:00 +18°C° 0 mm 4 mps 753 mmHg 62%
    23:00 +17°C° 0 mm 4 mps 753 mmHg 66%
    Show more